星链-33668 (STARLINK-33668)

导读

STARLINK-33668是美国SpaceX公司星链(Starlink)星座中的一颗卫星,于2025年3月31日发射入轨。星链星座旨在低地球轨道构建全球宽带互联网覆盖,为基础设施匮乏地区提供高速低延迟网络服务。该卫星加入后,将进一步扩展星链网络覆盖范围,提升全球偏远地区网络接入能力,推动全球互联网普及进程。

Basic Information
目录编号:
63402
目录名称:
STARLINK-33668
国际标识:
2025-065D
轨道中心:
EARTH
卫星名称:
星链-33668
卫星全名:
星链-33668 (STARLINK-33668)
卫星状态:
在轨 (已飞行522 天)
发射日期:
2025-03-31 UTC
国别 :
美国 (US)
星等 :
--
Orbit Information
数据来源 国际轨道数据 AOE轨道数据
星历时间 2026-09-04T11:52:34+0800
12小时前
查看轨道信息
2026-09-03T22:00:00+0800
1天前
查看轨道信息
半长轴 6861.173km 6861.215km
偏心率 0.0001413 0.0001748
轨道倾角 43.000° 43.001°
近地点辐角 274.067° 260.943°
升交点赤经 179.274° 182.542°
平近点角 86.002° 155.838°
近地点 482.066km 481.878km
远地点 484.006km 484.278km
周期 94.266分钟 94.267分钟
每日圈数 15.275844 15.275704
Detailed Information
固有亮度:
5
最大亮度:
2.5
卫星平台:
Starlink V1.0
覆盖范围:
全球
运营商:
太空探索技术公司
运营商所在国:
美国
制造商(研发单位):
太空探索技术公司
制造商所在国:
美国
使用方式:
暂无
Satellite Introduction
Starlink 计划是 SpaceX 推出的全球卫星互联网项目,通过发射低轨道卫星,为全球尤其是偏远地区提供高速、低延迟的互联网服务。自 2019 年起,Starlink 已部署数千颗卫星,旨在缩小全球数字鸿沟,推动互联网普及。该项目还为军事、航空等行业提供通信支持,带来广泛经济效益。
2D Orbit Map
3D Orbit Map
Orbit Altitude Analysis Chart
Orbit Inclination Analysis Chart
Orbit Comprehensive Analysis Chart
View Comprehensive Chart
Conjunction Data List
Event ID Objects TCA Miss Dist (km) Collision Risk Probability Collision Risk Index (CRI) Action
CDM_260906-113205-212306-340221
2026-09-06T
11:32:41+0000
0.751 km
远距离
5.769536E-5 中风险 0.7
CDM_260906-214405-212306-340221
2026-09-06T
21:44:49+0000
1.050 km
极远距离
1.896855E-5 中风险 0.61
CDM_260903-062706-340206-419922
SJ-26 (64199)
2026-09-03T
06:27:21+0000
2.935 km
极远距离
1.316221E-6 低风险 0.37